Regional Weather Roundup
Issued by NWS

Home | Current Version | Previous Version | Text Only | Print | Product List | Glossary On
Versions: 1 2 3 4 5 6 7 8 9 10 11 12 13 14 15 16 17 18 19 20 21 22 23 24 25 26 27 28 29 30 31 32 33 34 35 36 37 38 39 40 41 42 43 44 45 46 47 48 49 50
000
ASUS44 KBMX 301510
RWRAL

ALABAMA REGIONAL WEATHER ROUNDUP
NATIONAL WEATHER SERVICE BIRMINGHAM AL
1000 AM CDT TUE SEP 30 2014

NOTE: "FAIR" INDICATES FEW OR NO CLOUDS BELOW 12,000 FEET
WITH NO SIGNIFICANT WEATHER AND/OR OBSTRUCTIONS TO VISIBILITY.

THE REMARK "TC" DENOTES TEMPERATURE IN DEGREES CELSIUS.

ALZ001>011-014-016>018-020-301600-
NORTH ALABAMA

CITY           SKY/WX    TMP DP  RH WIND       PRES   REMARKS
MUSCLE SHOALS  SUNNY     74  64  71 CALM      29.98F
HUNTSVILLE     CLOUDY    70  64  81 S3        29.99S FOG
DECATUR        CLOUDY    66  65  96 SE5       29.99S FOG
HALEYVILLE     FAIR      75  66  73 CALM      30.01S
GADSDEN        CLOUDY    70  61  73 E6        29.99S
$$

ALZ012-013-022-023-030>036-040>044-301600-
WEST CENTRAL ALABAMA

CITY           SKY/WX    TMP DP  RH WIND       PRES   REMARKS
TUSCALOOSA     SUNNY     76  64  66 NE5       29.97S
$$

ALZ015-024>027-033>036-040>044-301600-
CENTRAL ALABAMA

CITY           SKY/WX    TMP DP  RH WIND       PRES   REMARKS
BIRMINGHAM     CLOUDY    70  63  78 VRB6      30.01R
MONTGOMERY     CLOUDY    74  66  76 E5        29.96S
SHELBY CO ARPT CLOUDY    69  64  84 E5        29.98S
MAXWELL AFB    CLOUDY    73  67  80 E3        29.96R
GREENVILLE     CLOUDY    72  66  81 E5        29.95S
$$

ALZ019-021-028-029-037-038-045>048-301600-
EAST CENTRAL ALABAMA

CITY           SKY/WX    TMP DP  RH WIND       PRES   REMARKS
ANNISTON       CLOUDY    73  63  70 VRB3      29.98F
ALEXANDER CITY CLOUDY    74  67  79 NE6       29.98S
AUBURN         CLOUDY    72  63  73 E8        30.00S
$$

ALZ051>064-301600-
SOUTHWEST ALABAMA

CITY           SKY/WX    TMP DP  RH WIND       PRES   REMARKS
MOBILE         CLOUDY    70  70 100 NE8       29.94S FOG
BROOKLEY FIELD CLOUDY    74  70  87 NE6       29.94S
EVERGREEN      CLOUDY    74  69  85 NE6       29.95S
$$

ALZ049-050-065>069-301600-
SOUTHEAST ALABAMA

CITY           SKY/WX    TMP DP  RH WIND       PRES   REMARKS
DOTHAN         CLOUDY    71  67  87 NE9       29.97S
OZARK          CLOUDY    71  66  85 N8        29.94R
TROY           PTSUNNY   75  65  70 VRB5      29.95F
EUFAULA        PTSUNNY   78  66  66 VRB7      29.93S
$$



USA.gov is the U.S. government's official web portal to all federal, state and local government web resources and services.